Change the Weather History Date:

Thursday, November 22, 2012

  Actual Average Record
Temperature  
Mean Temperature 51 °F -  
Max Temperature 63 °F 63 °F 78 °F (2011)
Min Temperature 39 °F 39 °F 19 °F (2000)
Degree Days  
Heating Degree Days 14    
Growing Degree Days 1 (Base 50)    
Moisture  
Dew Point 26 °F    
Average Humidity 46    
Maximum Humidity 66    
Minimum Humidity 18    
Precipitation  
Precipitation 0.00 in - - ()
Sea Level Pressure  
Sea Level Pressure 30.19 in    
Wind  
Wind Speed 6 mph (NNE)    
Max Wind Speed 15 mph    
Max Gust Speed -    
Visibility 10 miles    
Events      
Averages and records for this station are not official NWS values.
T = Trace of Precipitation, MM = Missing Value Source: NWS Daily Summary

Daily Weather History Graph

Daily Weather History Graph

Search for Another Location

Airport or City:

Trip Planner

Search our weather history database for the weather conditions in past years. The results will help you decide how hot, cold, wet, or windy it might be!

Date:

Astronomy

Nov. 22, 2012 Rise Set
Actual Time 7:01 AM EST 5:14 PM EST
Civil Twilight 6:34 AM EST 5:41 PM EST
Nautical Twilight 6:03 AM EST 6:12 PM EST
Astronomical Twilight 5:33 AM EST 6:42 PM EST
Moon 1:47 PM EST (11/22) 1:33 AM EST (11/22)
Length of Visible Light 11h 07m
Length of Day
10h 13m
Waxing Gibbous, 71% of the Moon is Illuminated
Nov 22
Waxing Gibbous
Nov 28
Full
Dec 6
Last Quarter
Dec 13
New
Dec 20
First Quarter

Hourly Weather History & Observations

Time (EST) Temp. Windchill Dew Point Humidity Pressure Visibility Wind Dir Wind Speed Gust Speed Precip Events Conditions
12:55 AM 43.3 °F 39.9 °F 31.1 °F 62% 30.16 in 10.0 mi NNE 5.8 mph - N/A   Clear
1:55 AM 43.0 °F 39.5 °F 29.8 °F 60% 30.16 in 10.0 mi NNE 5.8 mph - N/A   Clear
2:55 AM 44.1 °F 40.1 °F 30.0 °F 58% 30.16 in 10.0 mi North 6.9 mph - N/A   Clear
3:55 AM 43.9 °F 39.3 °F 29.3 °F 57% 30.16 in 10.0 mi North 8.1 mph - N/A   Clear
4:55 AM 40.1 °F 36.1 °F 28.6 °F 63% 30.18 in 10.0 mi NNE 5.8 mph - N/A   Clear
5:55 AM 42.3 °F 36.8 °F 28.0 °F 57% 30.19 in 10.0 mi North 9.2 mph - N/A   Clear
6:55 AM 39.4 °F 36.1 °F 28.4 °F 65% 30.21 in 10.0 mi North 4.6 mph - N/A   Clear
7:55 AM 42.3 °F 37.9 °F 28.2 °F 58% 30.23 in 10.0 mi North 6.9 mph - N/A   Clear
8:55 AM 47.5 °F - 27.9 °F 47% 30.25 in 10.0 mi NE 8.1 mph - N/A   Clear
9:55 AM 53.1 °F - 26.1 °F 35% 30.25 in 10.0 mi NNE 15.0 mph - N/A   Clear
10:55 AM 56.5 °F - 24.4 °F 29% 30.24 in 10.0 mi NE 11.5 mph - N/A   Clear
11:55 AM 60.3 °F - 21.6 °F 23% 30.21 in 10.0 mi NE 12.7 mph - N/A   Clear
12:55 PM 62.2 °F - 19.9 °F 20% 30.18 in 10.0 mi NNE 12.7 mph - N/A   Clear
1:55 PM 63.5 °F - 21.2 °F 20% 30.16 in 10.0 mi North 9.2 mph - N/A   Clear
2:55 PM 63.9 °F - 19.6 °F 18% 30.15 in 10.0 mi NNW 11.5 mph - N/A   Clear
3:55 PM 63.1 °F - 19.8 °F 19% 30.15 in 10.0 mi North 8.1 mph - N/A   Clear
4:55 PM 58.3 °F - 21.6 °F 24% 30.16 in 10.0 mi NNE 4.6 mph - N/A   Clear
5:55 PM 51.4 °F - 26.2 °F 38% 30.17 in 10.0 mi Calm Calm - N/A   Clear
6:55 PM 47.5 °F - 27.3 °F 46% 30.17 in 10.0 mi Calm Calm - N/A   Clear
7:55 PM 42.3 °F - 29.3 °F 60% 30.18 in 10.0 mi Calm Calm - N/A   Clear
8:55 PM 41.5 °F - 28.6 °F 60% 30.19 in 10.0 mi Calm Calm - N/A   Clear
9:55 PM 40.5 °F - 29.8 °F 66% 30.19 in 10.0 mi Calm Calm - N/A   Clear
10:55 PM 40.1 °F - 27.5 °F 61% 30.19 in 10.0 mi Calm Calm - N/A   Clear
11:55 PM 39.2 °F - 28.2 °F 65% 30.18 in 10.0 mi Calm Calm - N/A   Clear